Regional Weather Roundup
Issued by NWS

Home | Current Version | Previous Version | Graphics & Text | Print | Product List | Glossary On
Versions: 1 2 3 4 5 6 7 8 9 10 11 12 13 14 15 16 17 18 19 20 21 22 23 24 25 26 27 28 29 30 31 32 33 34 35 36 37 38 39 40 41 42 43 44 45 46 47 48 49 50
280
ASUS43 KMKX 242121
RWRWI

WISCONSIN REGIONAL WEATHER ROUNDUP
NATIONAL WEATHER SERVICE MILWAUKEE/SULLIVAN WI
400 PM CDT TUE MAY 24 2016

NOTE: "FAIR" INDICATES FEW OR NO CLOUDS BELOW 12,000 FEET WITH NO
SIGNIFICANT WEATHER AND/OR OBSTRUCTIONS TO VISIBILITY.

WIZ001-002-006>008-014>016-023>028-242200-
NORTHWEST WISCONSIN

CITY           SKY/WX    TMP DP  RH WIND       PRES   REMARKS
SUPERIOR ARPT  SUNNY     64  57  78 NE12      29.91R
ASHLAND        MOSUNNY   69  63  81 NE13      29.90R
HAYWARD        MOSUNNY   77  58  51 MISG      29.89F
SIREN          SUNNY     79  55  43 SW3       29.89R
CUMBERLAND     MOSUNNY   77  54  44 NW10      29.90S
RICE LAKE      MOSUNNY   79  52  39 W8        29.90S
CHETEK         MOSUNNY   81  52  36 W8        29.89S HX  80
LADYSMITH      MOSUNNY   79  55  43 W10       29.90F HX  80
EAU CLAIRE     MOSUNNY   82  56  40 SW8       29.88S HX  82
MENOMONIE      CLOUDY    83  56  40 W8        29.88S HX  82
NEW RICHMOND   SUNNY     81  48  31 W8        29.90S HX  80
OSCEOLA        MOSUNNY   81  54  39 NW6       29.91F HX  81
$$

WIZ003>005-009-010-017-018-242200-
NORTH CENTRAL WISCONSIN

CITY           SKY/WX    TMP DP  RH WIND       PRES   REMARKS
MANITOWISH WTR SUNNY     77  54  45 SW10      29.88F
ARBOR VITAE    CLOUDY    77  59  54 W10       29.89F
WOODRUFF       CLOUDY    77  59  54 W10       29.89F
RHINELANDER    CLOUDY    77  59  53 W9G18     29.91F
EAGLE RIVER      N/A     73  58  58 W5        29.90F
LAND O LAKES   MOSUNNY   75  56  50 SW7       29.90F
PHILLIPS       MOSUNNY   77  58  52 W10G16    29.89S
TOMAHAWK       CLOUDY    76  56  50 W9        29.91S
MEDFORD        PTSUNNY   74  61  63 W8        29.91S
MERRILL        PTSUNNY   77  59  52 W12G18    29.91F
$$

WIZ029-030-035-036-043>047-242200-
CENTRAL WISCONSIN

CITY           SKY/WX    TMP DP  RH WIND       PRES   REMARKS
WAUSAU         MOSUNNY   81  57  43 W14G20    29.89F HX  81
MOSINEE        NOT AVBL
MARSHFIELD     MOSUNNY   80  56  43 W9        29.90F HX  80
STEVENS POINT  PTSUNNY   79  56  45 SW9       29.91S HX  80
WAUPACA        MOSUNNY   83  56  38 SW13G22   29.90S HX  82
WAUTOMA        CLOUDY    82  57  42 W14       29.91S HX  82
WISC RAPIDS    MOSUNNY   80  56  43 W6        29.92S HX  80
CAMP DOUGLAS   PTSUNNY   82  63  51 W9        29.91S HX  83
$$

WIZ011>013-019>022-031-037>040-048>050-242200-
NORTHEAST WISCONSIN

CITY           SKY/WX    TMP DP  RH WIND       PRES   REMARKS
ANTIGO         PTSUNNY   74  61  62 W12       29.92S
SHAWANO        PTSUNNY   76  66  72 NW6       29.90F
OCONTO         PTSUNNY   78  61  55 SW10      29.87S HX  80
STURGEON BAY   NOT AVBL
GREEN BAY      MOSUNNY   84  56  38 W15       29.88S HX  83
MANITOWOC      CLOUDY    76  62  62 S15       29.91S
APPLETON       PTSUNNY   81  54  39 W14G21    29.89S HX  80
CLINTONVILLE   PTSUNNY   79  55  44 NW10      29.89R
OSHKOSH        PTSUNNY   81  57  43 SW13G20   29.90S HX  81
$$

WIZ032>034-041-042-053>061-242200-
SOUTHWEST WISCONSIN

CITY           SKY/WX    TMP DP  RH WIND       PRES   REMARKS
LA CROSSE      MOSUNNY   81  58  45 CALM      29.90R HX  81
SPARTA         MOSUNNY   81  60  48 NW3       29.92S HX  81
VIROQUA        MOSUNNY   81  53  37 W3        29.94R HX  81
BOSCOBEL       MOSUNNY   83  60  45 SW6       29.91S HX  83
PRAIRIE DU CHI MOSUNNY   83  55  37 S7        29.91R HX  82
PLATTEVILLE    MOSUNNY   82  58  44 SW7       29.94S HX  82
$$

WIZ056-057-062-063-064-067-068-242200-
SOUTH CENTRAL WISCONSIN

CITY           SKY/WX    TMP DP  RH WIND       PRES   REMARKS
REEDSBURG      PTSUNNY   81  57  44 SW8       29.91F HX  81
BARABOO/DELLS  CLOUDY    80  55  40 SW12      29.92S HX  80
LONE ROCK      MOSUNNY   82  59  45 W8        29.92S HX  82
MINERAL POINT  MOSUNNY   82  55  39 SW12      29.94S HX  82
MADISON        PTSUNNY   80  58  46 W6        29.92F HX  80
MIDDLETON      MOSUNNY   81  59  47 SW9       29.93F HX  82
WATERTOWN      CLOUDY    81  60  49 W10       29.91S HX  81
MONROE         MOSUNNY   81  55  41 SW10G16   29.93S HX  80
JANESVILLE     PTSUNNY   86  55  35 SW12G18   29.91F HX  84
$$

WIZ051-052-058>065-066-070>072-242200-
SOUTHEAST WISCONSIN

CITY           SKY/WX    TMP DP  RH WIND       PRES   REMARKS
MILWAUKEE      PTSUNNY   84  57  39 SW15G24   29.91F HX  83
WAUKESHA       MOSUNNY   79  61  53 W7        29.94S HX  80
MILWAUKEE/TIMM SUNNY     82  59  44 W8        29.92F HX  82
RACINE         PTSUNNY   77  54  44 S10       29.94S
BURLINGTON     CLOUDY    84  53  34 SW14      29.92S HX  82
KENOSHA        MOSUNNY   85  56  37 S10G24    29.93S HX  84
FOND DU LAC    MOSUNNY   82  59  45 S17G26    29.90F HX  82
SHEBOYGAN      PTSUNNY   77  65  66 S9        29.92F
WEST BEND      CLOUDY    79  59  50 SW13      29.93S HX  80
JUNEAU         CLOUDY    78  58  51 SW13      29.94S
$$

LSZ147-162-242200-
LAKE SUPERIOR

STATION/POSITION TIME  TEMP    WIND        PRES    WAVE
                       AIR SEA DIR/SP/G            HT/PER
                 (UTC) (F)     (DEG/KT/KT) (MB)    (FT/S)
W MID LAKE BUOY  2050   43 38   20/ 14/ 14 1013.7F   0
DEVILS ISLAND    2100   53      50/ 13/ 13 1013.5F
SAXON HARBOR     2000   53      40/  8/ 11 1012.2R
$$

LMZ867-665-643>646-242200-
LAKE MICHIGAN

STATION/POSITION TIME  TEMP    WIND        PRES    WAVE
                       AIR SEA DIR/SP/G            HT/PER
                 (UTC) (F)     (DEG/KT/KT) (MB)    (FT/S)
CHAMBERS ISLAND  2040   71     150/  5/ 12 1011.9F
N MID LAKE BUOY  2050   49 44  210/ 12/ 14 1012.6F   2/ 4
NORTHPORT PIER   2000   68     180/  3/  8 1012.2F
SISTER BAY       2019   72     180/  7/  7   N/A
ALGOMA LAKESHORE 2016          210/  8/  9   N/A
KEWAUNEE LAKESHO 2000   53     170/ 12/ 13 1012.2F
SHEBOYGAN LAKESH 2100   59     160/ 13/ 14 1013.7F
PORT WASHINGTON  2000   58      CALM  / 11 1014.6R
S MID LAKE BUOY  2050   55 48  130/  8/  8 1014.0F   1
KENOSHA   LAKESH 2100   62     170/ 10/ 14 1013.2F
$$

TC  - TEMPERATURE IN CELSIUS
VSB - VISIBILITY IN STATUTE MILES
WCI - WIND CHILL INDEX
HX  - HEAT INDEX





USA.gov is the U.S. government's official web portal to all federal, state and local government web resources and services.